• In Uzbekistan
  • List of Countries
  • For 7 days
  • Water Temperature
  • Weather Map
  • Weather Widgets
  • user-avatar
    Login

    Hourly Weather Escaldes-Engordany

    Today, 20 November, Wednesday

    Time Temperature Precipitation Wind Pressure Humidity
    00:00 -2°C° 0 mm 1 mps 632 mmHg 69%
    01:00 -2°C° 0 mm 1 mps 632 mmHg 66%
    02:00 -2°C° 0 mm 1 mps 632 mmHg 64%
    03:00 -2°C° 0 mm 1 mps 631 mmHg 61%
    04:00 -2°C° 0 mm 1 mps 631 mmHg 58%
    05:00 -2°C° 0 mm 1 mps 631 mmHg 55%
    06:00 -2°C° 0 mm 1 mps 631 mmHg 53%
    07:00 -1°C° 0 mm 1 mps 632 mmHg 50%
    08:00 +1°C° 0 mm 1 mps 632 mmHg 47%
    09:00 +2°C° 0 mm 1 mps 633 mmHg 44%
    10:00 +2°C° 0 mm 2 mps 633 mmHg 44%
    11:00 +3°C° 0 mm 2 mps 633 mmHg 44%
    12:00 +4°C° 0 mm 2 mps 633 mmHg 44%
    13:00 +3°C° 0 mm 2 mps 632 mmHg 50%
    14:00 +2°C° 0 mm 2 mps 631 mmHg 56%
    15:00 +2°C° 0 mm 2 mps 631 mmHg 62%
    16:00 -1°C° 0 mm 2 mps 630 mmHg 68%
    17:00 -2°C° 0 mm 2 mps 629 mmHg 75%
    18:00 -4°C° 0 mm 2 mps 629 mmHg 81%
    19:00 -4°C° 0 mm 2 mps 629 mmHg 81%
    20:00 -4°C° 0 mm 2 mps 629 mmHg 82%
    21:00 -4°C° 0 mm 2 mps 629 mmHg 83%
    22:00 -4°C° 0 mm 2 mps 629 mmHg 83%
    23:00 -4°C° 0 mm 2 mps 628 mmHg 84%

    Tomorrow, 21 November, Thursday

    Time Temperature Precipitation Wind Pressure Humidity
    00:00 -5°C° 0 mm 2 mps 628 mmHg 85%
    01:00 -2°C° 0 mm 1 mps 628 mmHg 84%
    02:00 -2°C° 0 mm 1 mps 628 mmHg 83%
    03:00 -1°C° 0 mm 1 mps 628 mmHg 82%
    04:00 -1°C° 0 mm 1 mps 628 mmHg 84%
    05:00 -1°C° 0 mm 1 mps 628 mmHg 86%
    06:00 -1°C° 0 mm 1 mps 628 mmHg 89%
    07:00 0°C° 0 mm 1 mps 628 mmHg 85%
    08:00 +1°C° 0 mm 1 mps 629 mmHg 82%
    09:00 +2°C° 0 mm 1 mps 630 mmHg 79%
    10:00 +3°C° 0 mm 1 mps 630 mmHg 77%
    11:00 +3°C° 0 mm 1 mps 630 mmHg 75%
    12:00 +4°C° 0 mm 1 mps 630 mmHg 73%
    13:00 +4°C° 0 mm 1 mps 630 mmHg 75%
    14:00 +4°C° 0 mm 1 mps 629 mmHg 76%
    15:00 +3°C° 0 mm 1 mps 629 mmHg 77%
    16:00 +2°C° 0 mm 1 mps 629 mmHg 82%
    17:00 0°C° 0 mm 1 mps 629 mmHg 87%
    18:00 -1°C° 0 mm 1 mps 628 mmHg 93%
    19:00 -1°C° 0 mm 1 mps 629 mmHg 92%
    20:00 -1°C° 0 mm 1 mps 629 mmHg 92%
    21:00 -1°C° 0 mm 1 mps 629 mmHg 92%
    22:00 -1°C° 0 mm 1 mps 629 mmHg 92%
    23:00 -1°C° 0 mm 1 mps 629 mmHg 91%

    Day after tomorrow, 22 November, Friday

    Time Temperature Precipitation Wind Pressure Humidity
    00:00 -3°C° 0 mm 2 mps 629 mmHg 91%
    01:00 -3°C° 0 mm 2 mps 628 mmHg 91%
    02:00 -3°C° 0 mm 2 mps 628 mmHg 90%
    03:00 -3°C° 0 mm 2 mps 628 mmHg 89%
    04:00 -3°C° 0 mm 2 mps 627 mmHg 88%
    05:00 -3°C° 0 mm 2 mps 627 mmHg 86%
    06:00 -3°C° 0 mm 2 mps 627 mmHg 85%
    07:00 -2°C° 0.1 mm 2 mps 627 mmHg 84%
    08:00 0°C° 0.1 mm 3 mps 627 mmHg 84%
    09:00 +1°C° 0.1 mm 3 mps 627 mmHg 83%
    10:00 +1°C° 0.4 mm 3 mps 627 mmHg 86%
    11:00 0°C° 0.4 mm 4 mps 626 mmHg 89%
    12:00 0°C° 0.4 mm 4 mps 625 mmHg 91%
    13:00 0°C° 0.5 mm 4 mps 624 mmHg 93%
    14:00 0°C° 0.5 mm 4 mps 624 mmHg 95%
    15:00 0°C° 0.5 mm 4 mps 623 mmHg 96%
    16:00 0°C° 2.3 mm 4 mps 622 mmHg 96%
    17:00 0°C° 2.3 mm 4 mps 621 mmHg 96%
    18:00 0°C° 2.3 mm 4 mps 621 mmHg 96%
    19:00 0°C° 3.6 mm 4 mps 620 mmHg 96%
    20:00 0°C° 3.6 mm 4 mps 620 mmHg 96%
    21:00 +2°C° 3.6 mm 3 mps 619 mmHg 96%
    22:00 +2°C° 2.3 mm 3 mps 619 mmHg 97%
    23:00 +2°C° 2.3 mm 3 mps 619 mmHg 97%

    23 November, Saturday

    Time Temperature Precipitation Wind Pressure Humidity
    00:00 +2°C° 2.3 mm 3 mps 619 mmHg 98%
    01:00 +2°C° 0.1 mm 3 mps 618 mmHg 97%
    02:00 +2°C° 0.1 mm 2 mps 618 mmHg 97%
    03:00 +2°C° 0.1 mm 2 mps 618 mmHg 96%
    04:00 +1°C° 0 mm 2 mps 618 mmHg 96%
    05:00 +2°C° 0 mm 1 mps 618 mmHg 96%
    06:00 +1°C° 0 mm 1 mps 619 mmHg 95%
    07:00 +2°C° 0.1 mm 1 mps 619 mmHg 94%
    08:00 +3°C° 0.1 mm 1 mps 620 mmHg 94%
    09:00 +3°C° 0.1 mm 1 mps 621 mmHg 93%
    10:00 +4°C° 0.2 mm 1 mps 622 mmHg 92%
    11:00 +5°C° 0.2 mm 1 mps 622 mmHg 91%
    12:00 +5°C° 0.2 mm 1 mps 622 mmHg 90%
    13:00 +5°C° 0.3 mm 1 mps 623 mmHg 92%
    14:00 +5°C° 0.3 mm 1 mps 623 mmHg 94%
    15:00 +4°C° 0.3 mm 1 mps 623 mmHg 96%
    16:00 +4°C° 0.8 mm 1 mps 623 mmHg 96%
    17:00 +3°C° 0.8 mm 1 mps 624 mmHg 96%
    18:00 +2°C° 0.8 mm 1 mps 624 mmHg 96%
    19:00 +2°C° 1.1 mm 1 mps 625 mmHg 97%
    20:00 +2°C° 1.1 mm 1 mps 626 mmHg 97%
    21:00 +2°C° 1.1 mm 1 mps 626 mmHg 97%
    22:00 +1°C° 0.9 mm 2 mps 627 mmHg 97%
    23:00 -1°C° 0.9 mm 2 mps 627 mmHg 96%

    24 November, Sunday

    Time Temperature Precipitation Wind Pressure Humidity
    00:00 -1°C° 0.9 mm 2 mps 627 mmHg 96%
    01:00 -1°C° 0.9 mm 2 mps 627 mmHg 95%
    02:00 -1°C° 0.9 mm 2 mps 628 mmHg 95%
    03:00 -1°C° 0.9 mm 2 mps 628 mmHg 95%
    04:00 -1°C° 1.3 mm 2 mps 628 mmHg 95%
    05:00 -1°C° 1.3 mm 2 mps 629 mmHg 95%
    06:00 -1°C° 1.3 mm 2 mps 629 mmHg 95%
    07:00 +1°C° 1.6 mm 2 mps 630 mmHg 95%
    08:00 +2°C° 1.6 mm 2 mps 631 mmHg 95%
    09:00 +2°C° 1.6 mm 2 mps 632 mmHg 95%
    10:00 +3°C° 0.6 mm 2 mps 632 mmHg 95%
    11:00 +3°C° 0.6 mm 2 mps 633 mmHg 94%
    12:00 +4°C° 0.6 mm 2 mps 633 mmHg 94%
    13:00 +4°C° 0.5 mm 2 mps 633 mmHg 94%
    14:00 +4°C° 0.5 mm 2 mps 633 mmHg 94%
    15:00 +4°C° 0.5 mm 2 mps 634 mmHg 94%
    16:00 +3°C° 0.4 mm 2 mps 634 mmHg 94%
    17:00 +2°C° 0.4 mm 2 mps 634 mmHg 95%
    18:00 +1°C° 0.4 mm 2 mps 635 mmHg 96%
    19:00 +1°C° 0.1 mm 2 mps 635 mmHg 95%
    20:00 +1°C° 0.1 mm 2 mps 635 mmHg 95%
    21:00 +2°C° 0.1 mm 2 mps 636 mmHg 95%
    22:00 +1°C° 0 mm 2 mps 636 mmHg 95%
    23:00 +1°C° 0 mm 2 mps 636 mmHg 94%

    25 November, Monday

    Time Temperature Precipitation Wind Pressure Humidity
    00:00 +2°C° 0 mm 1 mps 636 mmHg 94%
    01:00 +1°C° 0 mm 1 mps 635 mmHg 91%
    02:00 +1°C° 0 mm 1 mps 635 mmHg 89%
    03:00 +1°C° 0 mm 1 mps 635 mmHg 86%
    04:00 -1°C° 0 mm 2 mps 635 mmHg 84%
    05:00 -1°C° 0 mm 2 mps 635 mmHg 81%
    06:00 -1°C° 0 mm 2 mps 635 mmHg 79%
    07:00 +1°C° 0 mm 2 mps 636 mmHg 80%
    08:00 +3°C° 0 mm 2 mps 637 mmHg 81%
    09:00 +4°C° 0 mm 2 mps 638 mmHg 81%
    10:00 +6°C° 0 mm 1 mps 638 mmHg 82%
    11:00 +7°C° 0 mm 1 mps 638 mmHg 82%
    12:00 +8°C° 0 mm 1 mps 638 mmHg 82%
    13:00 +7°C° 0 mm 1 mps 638 mmHg 83%
    14:00 +7°C° 0 mm 1 mps 638 mmHg 85%
    15:00 +7°C° 0 mm 1 mps 638 mmHg 86%
    16:00 +5°C° 0 mm 2 mps 638 mmHg 88%
    17:00 +4°C° 0 mm 2 mps 638 mmHg 89%
    18:00 +4°C° 0 mm 2 mps 637 mmHg 91%
    19:00 +3°C° 0 mm 2 mps 638 mmHg 91%
    20:00 +3°C° 0 mm 2 mps 638 mmHg 92%
    21:00 +3°C° 0 mm 2 mps 638 mmHg 92%
    22:00 +3°C° 0 mm 2 mps 638 mmHg 91%
    23:00 +3°C° 0 mm 2 mps 638 mmHg 91%
    Show more